Location: Newark
(30.0333°N, 31.2167°E)
Time: 21:09:00
(UTC+00:00)

Tiros 1 - Pass Details

Date: 29 January 2020
Orbit: 631 x 664 km, 48.4° (Epoch: 23 February)

Event Time Altitude Azimuth Distance (km) Brightness Sun altitude
Rises 07:35:33 0° 217° (SW) 2,902 10.6 29.5°
Reaches altitude 10° 07:37:53 10° 213° (SSW) 2,000 10.0 29.8°
Maximum altitude 07:42:23 57° 135° (SE) 747 8.9 30.5°
Drops below altitude 10° 07:46:57 10° 57° (ENE) 2,024 9.9 31.1°
Sets 07:49:19 0° 53° (NE) 2,940 10.6 31.4°
